Location: Killarney
(45.9719°N, 81.5115°W)
Time: 07:32:01
(UTC-04:00)

ISS - Pass Details

Date: 25 April 2025
Orbit: 416 x 419 km, 51.6° (Epoch: 14 May)

Event Time Altitude Azimuth Distance (km) Brightness Sun altitude
Exits shadow 03:56:27 33° 113° (ESE) 728 -2.5 -21.5°
Drops below altitude 10° 03:58:53 10° 74° (ENE) 1,495 -0.2 -21.2°
Sets 04:01:04 0° 66° (ENE) 2,362 1.2 -21.0°
